www.pogodaiklimat.ru

Погода и климат >> Архив погоды >> Вануату >> Сола


ПОГОДА в Соле

  • Прогноз погоды в Соле
  • Монитор погоды в Соле

АРХИВ ПОГОДЫ в Соле

Время (UTC), дата Ветер
(напр.,м/с)
 
Видим.   Явления Облачность Т
(С)
Тd
(С)
f
(%)
Тe
(С)
Тes
(С)
Комфортность P
(гПа)
Po
(гПа)
Тmin
(С)
Tmax
(С)
R
(мм)
R24
(мм)
S
(см)
18 13.09 штиль 0 20 км 10/6 600 м
[Cu med, cong As op]
+26.0 +25.3 96 +38 +38 очень
душно
1011.2 1009.1 2
21 13.09 штиль 0 20 км 10/5 600 м
[Cu med, cong As op]
+26.0 +26.0 100 +39 +39 очень
душно
1013.0 1010.9
00 14.09 штиль 0 20 км 10/6 600 м
[Cu med, cong As op]
+25.5 +24.8 96 +36 +38 очень
душно
1013.2 1011.1 46
03 14.09 В 3 20 км слаб. дождь 10/6 600 м
[Cu med, cong As op]
+26.5 +25.1 92 +38 +39 очень
душно
1010.8 1008.7
06 14.09 В 5 20 км {дождь} 10/6 600 м
[Cu med, cong As op]
+26.5 +24.4 88 +37 +37 очень
душно
1011.3 1009.2 0.0
09 14.09 В 5 20 км {дождь} 10/6 600 м
[Cu med, cong As op]
+25.5 +24.8 96 +36 +36 очень
душно
1013.6 1011.5
12 14.09 В 5 20 км слаб. дождь 10/6 540 м
[Cu med, cong As op]
+25.0 +24.3 96 +35 +35 очень
душно
1014.0 1011.9 5
18 14.09 ЮВ 5 20 км {дождь} 10/6 600 м
[Cu med, cong As op]
+26.0 +23.8 88 +36 +36 очень
душно
1013.3 1011.2 2
21 14.09 ЮВ 4 20 км 9/9 600 м
[Cu med, cong]
+27.0 +24.1 84 +37 +38 очень
душно
915.2 913.3
00 15.09 ЮВ 4 20 км 9/9 600 м
[Cu med, cong]
+28.5 +25.0 81 +41 +42 опасность
перегрева
1014.9 1012.8 +24.4 15
03 15.09 ЮВ 5 20 км 9/9 600 м
[Cu med, cong]
+27.0 +24.9 88 +39 +39 очень
душно
1012.9 1010.8
06 15.09 штиль 0 20 км 9/9 600 м
[Cu med, cong]
+26.0 +23.8 88 +36 +36 очень
душно
1013.1 1011.0 2
09 15.09 ЮВ 5 20 км слаб. морось 10/10 600 м
[Cu Sc]
+26.5 +23.6 84 +36 +36 очень
душно
1015.1 1013.0
12 15.09 ЮВ 5 20 км {морось} 10/10 600 м
[Cu Sc]
+26.0 +23.1 84 +35 +35 очень
душно
1015.0 1012.9 4
21 15.09 ЮВ 5 20 км 9/9 600 м
[Cu Sc]
+26.5 +23.6 84 +36 +36 очень
душно
1016.7 1014.6
00 16.09 ЮВ 5 20 км 10/10 600 м
[Cu Sc]
+27.0 +22.6 77 +36 +36 очень
душно
1016.9 1014.8 +24.5 7
03 16.09 ЮВ 5 20 км 10/10 600 м
[Cu Sc]
+26.0 +22.3 80 +34 +34 очень
душно
1015.3 1013.2
06 16.09 ЮВ 5 20 км 10/8 600 м
[Cu Sc Ci fib]
+26.0 +21.5 76 +33 +33 очень
душно
1015.0 1012.9
09 16.09 ЮВ 5 20 км 10/10 600 м
[Cu Sc]
+26.0 +20.7 73 +33 +33 очень
душно
1016.7 1014.6
12 16.09 штиль 0 50 км ?/? +26.0 +21.5 76 +33 +33 очень
душно
1015.2 1013.1
15 16.09 В 5 20 км 10/10 600 м
[Cu Sc]
+26.5 +22.9 81 +35 +35 очень
душно
1016.1 1014.0
18 16.09 В 4 20 км 10/10 600 м
[Cu Sc]
+26.3 +22.2 78 +34 +34 очень
душно
1014.4 1012.3
21 16.09 В 5 20 км 10/10 600 м
[Cu Sc]
+26.5 +22.9 81 +35 +35 очень
душно
1016.1 1014.0
00 17.09 В 4 20 км 10/10 600 м
[Cu Sc]
+27.5 +23.9 81 +38 +38 очень
душно
1015.5 1013.4 +25.0
03 17.09 В 4 20 км 10/10 600 м
[Cu Sc]
+27.0 +24.1 84 +37 +37 очень
душно
1013.8 1011.7
06 17.09 В 4 20 км 10/10 600 м
[Cu Sc]
+27.0 +23.4 81 +37 +37 очень
душно
1013.7 1011.6 0.4
09 17.09 В 4 20 км 10/10 600 м
[Cu Sc]
+27.0 +23.4 81 +37 +37 очень
душно
1015.8 1013.7
12 17.09 С 3 н/о н/о +25.7 +24.4 93 +36 +36 очень
душно
1016.1 1014.7 +27.7 0.0
15 17.09 С 3 н/о н/о +25.7 +23.6 88 +35 +35 очень
душно
1014.7 1013.3
18 17.09 С 3 20 км 10/9 600 м
[Cu med, cong]
+25.5 +23.4 88 +34 +34 очень
душно
1015.6 1014.2 1
21 17.09 СВ 5 н/о н/о +26.0 +24.0 89 +36 +36 очень
душно
1016.3 1014.9
00 18.09 СВ 4 н/о н/о +27.0 +24.4 86 +38 +38 очень
душно
1016.0 1014.6 +24.9 1
03 18.09 СВ 4 н/о н/о +26.1 +25.3 95 +38 +38 очень
душно
1014.0 1012.6
06 18.09 ЮВ 5 20 км слаб. дождь 10/6 600 м
[Cu med, cong As op]
+27.0 +22.0 74 +35 +35 очень
душно
1013.2 1011.1 0.0
09 18.09 штиль 0 20 км {дождь} 10/6 600 м
[Cu med, cong As op]
+26.5 +25.8 96 +39 +39 очень
душно
1015.0 1012.9
12 18.09 В 5 20 км {дождь} 10/6 600 м
[Cu med, cong As op]
+27.0 +25.6 92 +40 +40 очень
душно
1014.8 1012.7 1
18 18.09 ЮВ 4 20 км 10/6 600 м
[Cu med, cong As op]
+26.5 +25.1 92 +38 +38 очень
душно
913.9 912.0 20
21 18.09 В 4 20 км 10/6 600 м
[Cu med, cong As op]
+26.5 +25.1 92 +38 +38 очень
душно
1015.0 1012.9
00 19.09 В 4 20 км 9/9 600 м
[Cu Sc]
+29.0 +24.8 78 +41 +43 опасность
перегрева
1014.4 1012.3 24
03 19.09 В 4 20 км 8/8 600 м
[Cu med, cong]
+29.0 +24.8 78 +41 +43 опасность
перегрева
1013.0 1010.9
06 19.09 ЮВ 4 20 км 9/8 600 м
[Cu med, cong Ac As]
+27.5 +23.2 77 +37 +37 очень
душно
1013.3 1011.2
09 19.09 С 4 н/о н/о +26.5 +24.4 88 +37 +37 очень
душно
1014.9 1013.5
12 19.09 В 3 20 км 9/9 600 м
[Cu med, cong]
+27.0 +23.4 81 +37 +37 очень
душно
1015.4 1013.3 +28.3
18 19.09 С 3 н/о н/о +26.1 +22.7 82 +35 +35 очень
душно
1014.3 1012.9 +25.5 0.0
21 19.09 штиль 0 20 км 9/6 600 м
[Cu Sc Ac trans]
+27.5 +23.2 77 +37 +39 очень
душно
1014.7 1012.6
00 20.09 СВ 3 н/о н/о +28.7 +24.2 77 +40 +40 очень
душно
1015.8 1014.4 +25.5 0.0
03 20.09 СВ 3 н/о н/о +27.8 +24.0 80 +39 +39 очень
душно
1013.9 1012.5
06 20.09 В 4 20 км 9/9 600 м
[Cu Sc]
+27.0 +23.4 81 +37 +37 очень
душно
1013.2 1011.1
09 20.09 В 4 20 км 10/10 600 м
[Cu Sc]
+27.0 +22.6 77 +36 +36 очень
душно
1014.3 1012.2

 

Местоположение метеостанции Сола (Вануату): широта -13.85 долгота 167.55 высота над уровнем моря 18 м.

В архиве по умолчанию представлена погода в Соле за последнюю неделю. Архивные данные за месяц целиком и за предыдущие месяцы, начиная с января 2011 года, Вы можете получить, выбрав интересующий диапазон дат из раскрывающегося списка и нажав кнопку "Ввод!".


*Определитесь, кто Вы:
робот инопланетянин человек

Внимание! Время в таблицах - всемирное. Для получения местного времени необходимо прибавить поправку, которая равна 11 ч.

Смотрите также архив погоды в соседних городах и на ближайших метеорологических станциях:

Погода на Линуа (Вануату) (117 км)
Погода в Саратамате (Вануату) (159 км)
Погода в Санто-Пекоа (Вануату) (188 км)
Погода в Ламапе (Вануату) (286 км)
Погода на Островах Санта-Круз (Соломоновы Острова) (398 км)
Погода в Порт-Виле (Вануату) (436 км)
Погода на Эроманге (Вануату) (565 км)
Погода в Уайт Грасс (Вануату) (647 км)
Погода на Острове Сюрприз (Новая Каледония) (702 км)
Погода в Анейтьюме (Вануату) (747 км)

Пояснения к столбцам:

Ветер - указаны скорость ветра в м/с - средняя за 10 мин, порывы в срок и между сроками (в фигурных скобках) и направление, откуда дует ветер: С - северный, СВ - северо-восточный, В - восточный, ЮВ - юго-восточный, Ю - южный, ЮЗ - юго-западный, З - западный, СЗ - северо-западный.
Видимость - горизонтальная дальность видимости в метрах или километрах. При видимости от 1 до 10 км при отсутствии осадков обычно наблюдается дымка, при ухудшении видимости до 1 км и менее - туман. В сухую погоду видимость может ухудшаться дымом, пылью или мглою.
Явления - указаны атмосферные явления, наблюдавшиеся в срок или в последний час перед сроком; фигурными скобками обозначены явления, наблюдавшиеся между сроками (за 1-3 часа до срока); квадратными скобками обозначены град или гололедные отложения с указанием их диаметра в мм.
Облачность - указаны через наклонную черту общая и нижняя облачность в баллах и высота нижней границы облаков в метрах; квадратными скобками обозначены формы облаков: Ci - перистые, Cs - перисто-слоистые, Cc - перисто-кучевые, Ac - высококучевые, As - высокослоистые, Sc - слоисто-кучевые, Ns - слоисто-дождевые, Cu - кучевые, Cb - кучево-дождевые. Подробнее классификацию облаков см. в Атласе облаков (PDF).
T - Температура воздуха - температура, измеренная на высоте 2 м над землей.
Td - Температура точки росы - температура, при понижении до которой содержащийся в воздухе водяной пар достигнет насыщения.
f - Относительная влажность воздуха - влажноcть воздуха, измеренная на высоте 2 м над землей.
Te - Эффективная температура - температура, которую ощущает одетый по сезону человек в тени. Характеристика душности погоды. При расчете учитывается влияние влажности воздуха и скорости ветра на теплоощущения человека.
Tes - Эффективная температура на солнце - температура, которую ощущает человек, с поправкой на солнечный нагрев. Характеристика знойности погоды. Зависит от высоты солнца над горизонтом, облачности и скорости ветра. Ночью, в пасмурную погоду, а также при ветре 12 м/с и более поправка равна нулю.
P - Атмосферное давление - приведенное к уровню моря атмосферное давление.
Po - Атмосферное давление - измеренное на уровне метеостанции атмосферное давление.
Tmin - Минимальная температура - минимум температуры воздуха на высоте 2 м над землей.
Tmax - Максимальная температура - максимум температуры воздуха на высоте 2 м над землей.
R - Количество осадков - Количество выпавших осадков за период времени, мм. При наведении курсора мыши на число - период времени, за который выпало указанное количество осадков.
R24 - Количество осадков - Количество выпавших осадков за 24 часа, мм.
S - Снежный покров - Высота снежного покрова, см. При наведении курсора мыши на число - состояние снежного покрова и степень покрытия местности в баллах.